Location: Asheville, NC
(35.6000°N, 82.5500°W)
Time: 22:15:36
(UTC-04:00)

Vanguard 2 Rocket - Pass Details

Date: 08 December 2017
Orbit: 554 x 3327 km, 32.9° (Epoch: 20 July)

Event Time Altitude Azimuth Distance (km) Brightness Sun altitude
Rises 01:51:50 0° 281° (W) 7,147 - -66.7°
Reaches altitude 10° 01:56:32 10° 279° (W) 6,240 - -65.8°
Maximum altitude 02:16:42 67° 203° (SSW) 3,223 - -62.0°
Exits shadow 02:26:47 29° 131° (SE) 3,895 10.0 -60.1°
Drops below altitude 10° 02:31:46 10° 124° (SE) 4,831 10.7 -59.1°
Sets 02:34:53 0° 122° (ESE) 5,527 11.2 -58.5°
